Regional Weather Roundup
Issued by NWS

Home | Current Version | Previous Version | Graphics & Text | Print | Product List | Glossary On
Versions: 1 2 3 4 5 6 7 8 9 10 11 12 13 14 15 16 17 18 19 20 21 22 23 24 25 26 27 28 29 30 31 32 33 34 35 36 37 38 39 40 41 42 43 44 45 46 47 48 49 50
000
ASUS45 KBOI 171710
RWRID
WEATHER ROUNDUP FOR IDAHO
NATIONAL WEATHER SERVICE BOISE ID
1000 AM MST WED DEC 17 2014

NOTE: "FAIR" INDICATES FEW OR NO CLOUDS BELOW 12000 FEET
WITH NO SIGNIFICANT WEATHER AND/OR OBSTRUCTIONS TO VISIBILITY

IDZ012-014-171800-
SOUTHWEST IDAHO


CITY           SKY/WX    TMP DP  RH WIND       PRES   REMARKS
BOISE          CLOUDY    33  30  88 E5        30.00R WCI  29
CALDWELL       CLOUDY    34  25  69 E7        30.03R WCI  28
MOUNTAIN HOME  SUNNY     33  29  85 SE14      30.00R WCI  24
$$

IDZ016-017-171800-
SOUTHCENTRAL IDAHO


CITY           SKY/WX    TMP DP  RH WIND       PRES   REMARKS
BURLEY         SUNNY     29  25  85 NE5       29.99R WCI  24
JEROME         SUNNY     29  25  85 NE13      29.99S WCI  19
TWIN FALLS     SUNNY     32  26  78 CALM      29.98R
$$

IDZ019>023-171800-
SOUTHEAST IDAHO


CITY           SKY/WX    TMP DP  RH WIND       PRES   REMARKS
IDAHO FALLS    FOG       30  28  92 CALM      30.03R VSB 1/8
POCATELLO      MOSUNNY   27  26  96 CALM      30.03R
REXBURG        CLOUDY    31  30  96 CALM      30.02R FOG
$$

IDZ006-010-011-018-031-032-171800-
CENTRAL IDAHO MOUNTAINS


CITY           SKY/WX    TMP DP  RH WIND       PRES   REMARKS
MCCALL         CLOUDY    28  26  92 CALM      29.93R
HAILEY         MOSUNNY   25  19  80 NW8       30.01R WCI  16
STANLEY          N/A     22  15  75 E3        29.99R
SALMON         CLOUDY    27  25  93 CALM      30.01R
CHALLIS        CLOUDY    24  21  88 SE5       30.01R WCI  18
$$

IDZ002-004-006-007-026-171800-
NORTHERN IDAHO


CITY           SKY/WX    TMP DP  RH WIND       PRES   REMARKS
LEWISTON       PTSUNNY   39  32  76 SE14      29.93F WCI  31
LOWELL           N/A     33  30  88 CALM      30.04S
COEUR D`ALENE  PTCLDY    34  28  80 NE10      29.94R WCI  26
MULLAN PASS    PTSUNNY   29  25  85 VRB6      29.86R WCI  23
$$



USA.gov is the U.S. government's official web portal to all federal, state and local government web resources and services.